Petersburg, WV

11:41 PM EDT on May 22, 2017 (GMT -0400)
Petersburg

Weather History for KW99 - October, 2012

Change the Weather History Date:

Saturday, October 6, 2012

  Actual Average (KEKN) Record (KEKN)
Temperature  
Mean Temperature 54 °F -  
Max Temperature 67 °F 65 °F 87 °F (1900)
Min Temperature 42 °F 38 °F 22 °F (1965)
Degree Days  
Heating Degree Days 10    
Growing Degree Days 4 (Base 50)    
Moisture  
Dew Point 48 °F    
Average Humidity 77    
Maximum Humidity 93    
Minimum Humidity 49    
Precipitation  
Precipitation 0.00 in - - ()
Sea Level Pressure  
Sea Level Pressure 29.99 in    
Wind  
Wind Speed 3 mph (WNW)    
Max Wind Speed 16 mph    
Max Gust Speed 21 mph    
Visibility 8 miles    
Events      
Averages and records for this station are not official NWS values.
T = Trace of Precipitation, MM = Missing Value Source: NWS Daily Summary

Daily Weather History Graph

Daily Weather History Graph

Search for Another Location

Airport or City:

Trip Planner

Search our weather history database for the weather conditions in past years. The results will help you decide how hot, cold, wet, or windy it might be!

Date:

Astronomy

Oct. 06, 2012 Rise Set
Actual Time 7:17 AM EDT 6:50 PM EDT
Civil Twilight 6:51 AM EDT 7:17 PM EDT
Nautical Twilight 6:20 AM EDT 7:48 PM EDT
Astronomical Twilight 5:49 AM EDT 8:19 PM EDT
Moon 11:06 PM EDT (10/6) 1:08 PM EDT (10/6)
Length of Visible Light 12h 26m
Length of Day
11h 32m
Waning Gibbous, 65% of the Moon is Illuminated
Oct 6
Waning Gibbous
Oct 8
Last Quarter
Oct 15
New
Oct 21
First Quarter
Oct 29
Full

Hourly Weather History & Observations

Time (EDT) Temp. Dew Point Humidity Pressure Visibility Wind Dir Wind Speed Gust Speed Precip Events Conditions
12:15 AM 52.9 °F 50.0 °F 90% 29.97 in 2.0 mi Calm Calm - N/A   Clear
12:35 AM 52.5 °F 50.0 °F 91% 29.96 in 5.0 mi Calm Calm - N/A   Clear
12:55 AM 53.6 °F 51.3 °F 92% 29.96 in 4.0 mi Calm Calm - N/A   Clear
1:15 AM 51.6 °F 49.3 °F 92% 29.96 in 4.0 mi Calm Calm - N/A   Clear
1:35 AM 52.0 °F 49.6 °F 92% 29.96 in 4.0 mi Calm Calm - N/A   Scattered Clouds
1:55 AM 52.5 °F 50.0 °F 91% 29.94 in 4.0 mi Calm Calm - N/A   Clear
2:15 AM 52.9 °F 50.5 °F 92% 29.94 in 3.0 mi Calm Calm - N/A   Clear
2:35 AM 52.9 °F 50.7 °F 92% 29.93 in 4.0 mi Calm Calm - N/A   Clear
2:55 AM 52.5 °F 50.2 °F 92% 29.92 in 4.0 mi Calm Calm - N/A   Clear
3:15 AM 53.2 °F 50.9 °F 92% 29.92 in 3.0 mi Calm Calm - N/A   Clear
3:35 AM 52.2 °F 50.0 °F 92% 29.91 in 4.0 mi Calm Calm - N/A   Clear
3:55 AM 51.8 °F 49.6 °F 92% 29.91 in 3.0 mi Calm Calm - N/A   Clear
4:15 AM 52.0 °F 49.8 °F 92% 29.90 in 4.0 mi Calm Calm - N/A   Clear
4:35 AM 52.7 °F 50.4 °F 92% 29.90 in 4.0 mi Calm Calm - N/A   Clear
4:55 AM 52.3 °F 50.2 °F 92% 29.89 in 4.0 mi Calm Calm - N/A   Clear
5:35 AM 53.1 °F 51.1 °F 93% 29.89 in 4.0 mi Calm Calm - N/A   Clear
5:55 AM 53.6 °F 51.4 °F 92% 29.88 in 4.0 mi Calm Calm - N/A   Clear
6:35 AM 53.8 °F 51.8 °F 93% 29.87 in 5.0 mi Calm Calm - N/A   Clear
6:55 AM 54.5 °F 52.2 °F 92% 29.87 in 5.0 mi Calm Calm - N/A   Scattered Clouds
7:15 AM 54.9 °F 52.7 °F 92% 29.87 in 5.0 mi Calm Calm - N/A   Scattered Clouds
7:55 AM 56.3 °F 54.0 °F 92% 29.88 in 4.0 mi Calm Calm - N/A   Mostly Cloudy
8:15 AM 57.2 °F 54.9 °F 92% 29.88 in 7.0 mi Calm Calm - N/A   Mostly Cloudy
8:35 AM 58.3 °F 55.6 °F 91% 29.90 in 7.0 mi ENE 3.5 mph - N/A   Mostly Cloudy
8:55 AM 59.4 °F 56.1 °F 89% 29.90 in 7.0 mi Calm Calm - N/A   Overcast
9:15 AM 66.2 °F 57.6 °F 74% 29.90 in 10.0 mi WNW 8.1 mph - N/A   Overcast
9:35 AM 67.3 °F 57.2 °F 70% 29.90 in 10.0 mi West 15.0 mph - N/A   Mostly Cloudy
9:55 AM 66.6 °F 56.1 °F 69% 29.91 in 10.0 mi West 12.7 mph - N/A   Overcast
10:15 AM 67.3 °F 54.9 °F 64% 29.91 in 10.0 mi West 12.7 mph 16.1 mph N/A   Overcast
10:35 AM 67.3 °F 54.9 °F 64% 29.92 in 10.0 mi WNW 8.1 mph - N/A   Overcast
10:55 AM 65.3 °F 52.5 °F 63% 29.94 in 10.0 mi NW 13.8 mph 19.6 mph N/A   Overcast
11:15 AM 63.7 °F 50.2 °F 61% 29.97 in 10.0 mi WNW 15.0 mph 20.7 mph N/A   Overcast
11:35 AM 62.6 °F 49.5 °F 62% 29.99 in 10.0 mi WNW 9.2 mph - N/A   Overcast
11:55 AM 62.2 °F 50.0 °F 64% 29.98 in 10.0 mi NW 6.9 mph - N/A   Overcast
12:15 PM 62.1 °F 48.4 °F 61% 29.99 in 10.0 mi WNW 5.8 mph - N/A   Overcast
12:35 PM 61.9 °F 48.2 °F 61% 30.00 in 10.0 mi West 8.1 mph 17.3 mph N/A   Overcast
12:55 PM 61.0 °F 46.6 °F 59% 30.01 in 10.0 mi WNW 11.5 mph 18.4 mph N/A   Overcast
1:15 PM 60.8 °F 46.9 °F 60% 30.01 in 10.0 mi NW 12.7 mph 17.3 mph N/A   Overcast
1:35 PM 61.0 °F 47.7 °F 62% 30.02 in 10.0 mi NW 11.5 mph - N/A   Overcast
1:55 PM 61.3 °F 47.3 °F 60% 30.01 in 10.0 mi WNW 9.2 mph - N/A   Overcast
2:15 PM 62.6 °F 46.6 °F 56% 30.02 in 10.0 mi West 16.1 mph 19.6 mph N/A   Mostly Cloudy
2:35 PM 60.3 °F 44.8 °F 57% 30.02 in 10.0 mi WNW 12.7 mph 18.4 mph N/A   Mostly Cloudy
2:55 PM 61.9 °F 45.5 °F 55% 30.02 in 10.0 mi WNW 12.7 mph - N/A   Mostly Cloudy
3:15 PM 60.8 °F 44.8 °F 56% 30.02 in 10.0 mi NW 12.7 mph 17.3 mph N/A   Mostly Cloudy
3:35 PM 59.4 °F 43.2 °F 55% 30.02 in 10.0 mi WNW 15.0 mph - N/A   Scattered Clouds
4:15 PM 61.0 °F 42.3 °F 50% 30.02 in 10.0 mi West 13.8 mph 18.4 mph N/A   Clear
4:35 PM 60.8 °F 41.7 °F 49% 30.01 in 10.0 mi WSW 10.4 mph - N/A   Clear
5:35 PM 59.2 °F 41.0 °F 51% 30.02 in - WSW 4.6 mph - N/A   Unknown
5:55 PM 58.3 °F 40.1 °F 51% 30.03 in 10.0 mi WSW 5.8 mph - N/A   Clear
6:15 PM 57.6 °F 39.4 °F 51% 30.03 in 10.0 mi Calm Calm - N/A   Clear
6:55 PM 52.5 °F 39.9 °F 62% 30.05 in 10.0 mi Calm Calm - N/A   Clear
7:15 PM 50.9 °F 40.8 °F 68% 30.06 in 10.0 mi Calm Calm - N/A   Clear
7:35 PM 49.1 °F 40.6 °F 73% 30.07 in 10.0 mi Calm Calm - N/A   Clear
7:55 PM 46.9 °F 40.1 °F 77% 30.08 in 10.0 mi Calm Calm - N/A   Clear
8:15 PM 46.9 °F 40.8 °F 79% 30.09 in 10.0 mi Calm Calm - N/A   Clear
8:35 PM 47.7 °F 42.3 °F 82% 30.09 in 10.0 mi Calm Calm - N/A   Clear
8:55 PM 47.3 °F 41.4 °F 80% 30.10 in 10.0 mi Calm Calm - N/A   Clear
9:15 PM 46.2 °F 41.0 °F 82% 30.10 in 10.0 mi Calm Calm - N/A   Clear
9:35 PM 46.9 °F 42.4 °F 84% 30.11 in 10.0 mi Calm Calm - N/A   Clear
9:55 PM 45.0 °F 41.4 °F 87% 30.12 in 10.0 mi Calm Calm - N/A   Clear
10:15 PM 45.7 °F 42.1 °F 87% 30.12 in 10.0 mi Calm Calm - N/A   Clear
10:35 PM 45.5 °F 41.9 °F 87% 30.13 in 10.0 mi Calm Calm - N/A   Clear
10:55 PM 43.5 °F 40.3 °F 88% 30.13 in 10.0 mi Calm Calm - N/A   Clear
11:15 PM 42.8 °F 40.1 °F 90% 30.13 in 10.0 mi Calm Calm - N/A   Clear
11:35 PM 42.1 °F 39.4 °F 90% 30.12 in 10.0 mi Calm Calm - N/A   Clear